[[{"header":{"parameterUnit":"m.s-1","parameterCategory":1,"la1":30.2991,"la2":30.254,"lo1":-89.0895,"lo2":-89.0444,"dy":0.0017,"dx":0.0017,"nx":28,"ny":28,"refTime":"2025-09-05T09:00:00:Z","depth":0,"parameterNumber":2,"parameterNumberName":"U-component_of_WINDS"},"data":[0,0,0,0,0,0,0,0,0,0,0,0,0,0,0,0,0,0,0,0,0,0,0,0,0,0,0,0,0,0,0,0,0,0,0,0,0,0,0,0,0,0,0,0,0,0,0,0,0,0,0,0,0,0,0,0,0,0,-1.6577,-1.6577,0,-1.6592,-1.6593,-1.6593,-1.6572,-1.6572,-1.6571,-1.657,-1.6587,-1.6589,-1.659,0,0,0,0,0,0,0,0,0,0,0,0,0,-1.6531,-1.6532,-1.6577,-1.6577,-1.6577,-1.6592,-1.6593,-1.6593,-1.6572,-1.6572,-1.6571,-1.657,-1.6587,-1.6588,-1.659,0,0,0,0,0,0,0,0,0,0,0,0,0,-1.655,-1.6533,-1.6577,-1.6569,-1.6568,-1.6592,-1.6593,-1.6593,-1.6573,-1.6572,-1.657,-1.6569,-1.6587,-1.6588,-1.659,-1.6623,0,0,-1.6595,-1.6596,0,0,0,0,0,0,0,0,-1.6548,-1.6551,-1.657,-1.6569,-1.6569,-1.6579,-1.6583,-1.6603,-1.6573,-1.6571,-1.657,-1.6569,-1.6586,-1.6587,-1.6593,-1.6624,-1.6625,-1.6595,-1.6596,-1.6597,-1.6598,0,0,0,0,0,0,0,-1.6547,-1.655,-1.6583,-1.657,-1.6569,-1.6565,-1.6567,-1.6587,-1.6584,-1.6571,-1.657,-1.6572,-1.6585,-1.6591,-1.6593,-1.6625,-1.6595,-1.6597,-1.6598,-1.6599,-1.6687,-1.6688,0,0,0,0,0,0,-1.6547,-1.6549,-1.6582,-1.6583,-1.6556,-1.6567,-1.6568,-1.6577,-1.6584,-1.6584,-1.6573,-1.6571,-1.6589,-1.6591,-1.6594,-1.6634,-1.6597,-1.6599,-1.66,-1.6685,-1.6687,-1.6688,0,0,0,0,0,0,-1.6546,-1.655,-1.6582,-1.6566,-1.657,-1.6569,-1.6579,-1.6578,-1.6584,-1.6585,-1.6585,-1.6579,-1.6588,-1.6591,-1.6616,-1.6634,-1.66,-1.6601,-1.6684,-1.6686,-1.6688,-1.6715,0,0,0,0,0,0,-1.6545,-1.655,-1.6561,-1.6566,-1.6571,-1.6603,-1.658,-1.6579,-1.6587,-1.6584,-1.6591,-1.6591,-1.6587,-1.6614,-1.6618,-1.6636,-1.6603,-1.6682,-1.6685,-1.6687,-1.6712,-1.6717,-1.6722,0,0,0,0,0,-1.6543,-1.6568,-1.6562,-1.6566,-1.6585,-1.6604,-1.6607,-1.6601,-1.6588,-1.6601,-1.6602,-1.6591,-1.6632,-1.6617,-1.6621,-1.664,-1.6681,-1.6684,-1.6687,-1.671,-1.6716,-1.6722,0,0,0,0,0,0,-1.6564,-1.6568,-1.6562,-1.6589,-1.6597,-1.6601,-1.6616,-1.6608,-1.662,-1.6617,-1.661,-1.6612,-1.6639,-1.6642,-1.6625,-1.6674,-1.6655,-1.6658,-1.6671,-1.6677,-1.6681,-1.668,-1.6604,0,0,0,0,0,-1.6572,-1.6587,-1.659,-1.6614,-1.6618,-1.6617,-1.6625,-1.662,-1.6628,-1.6631,-1.6634,-1.6643,-1.6658,-1.6667,-1.6681,-1.6713,-1.6715,-1.6729,-1.6733,-1.6737,-1.6741,-1.676,-1.6766,-1.6698,-1.6698,-1.6698,0,0,-1.6589,-1.6593,-1.6602,-1.6618,-1.6624,-1.664,-1.6619,-1.6637,-1.6649,-1.6634,-1.6658,-1.6661,-1.667,-1.6699,-1.6712,-1.6703,-1.676,-1.6741,-1.6744,-1.6745,-1.6764,-1.677,-1.6776,-1.67,-1.67,-1.6699,0,0,-1.6627,-1.6631,-1.6652,-1.6659,-1.6667,-1.6666,-1.6672,-1.6678,-1.6679,-1.6704,-1.6693,-1.6708,-1.6734,-1.6741,-1.6748,-1.6793,-1.6784,-1.6798,-1.6822,-1.6841,-1.6847,-1.6851,-1.6868,-1.6874,-1.6801,-1.6801,-1.6801,0,-1.6646,-1.667,-1.6664,-1.6683,-1.6691,-1.6679,-1.6701,-1.6707,-1.672,-1.6727,-1.6716,-1.6749,-1.6754,-1.6786,-1.6797,-1.6803,-1.681,-1.6796,-1.6846,-1.6851,-1.6855,-1.6872,-1.6878,-1.6803,-1.6803,-1.6803,-1.6803,0,-1.6694,-1.671,-1.6727,-1.674,-1.675,-1.677,-1.6769,-1.678,-1.6776,-1.6777,-1.6803,-1.6809,-1.6825,-1.6832,-1.6828,-1.6864,-1.6858,-1.6847,-1.6827,-1.6864,-1.6879,-1.6885,-1.6805,-1.6805,-1.6804,-1.6804,0,0,-1.6744,-1.6755,-1.6761,-1.6768,-1.6778,-1.6791,-1.6813,-1.6828,-1.6838,-1.6849,-1.6867,-1.689,-1.6881,-1.6889,-1.6885,-1.6902,-1.6939,-1.6889,-1.6889,-1.6899,-1.6981,-1.699,-1.6997,-1.6933,-1.6934,-1.6935,-1.6981,0,-1.6782,-1.6818,-1.6815,-1.6849,-1.6866,-1.6856,-1.6874,-1.6883,-1.6886,-1.6901,-1.6904,-1.692,-1.6906,-1.6911,-1.6927,-1.6931,-1.6955,-1.6928,-1.6951,-1.6952,-1.6949,-1.7004,-1.7013,-1.7055,-1.6987,-1.6988,-1.6988,0,-1.6832,-1.6844,-1.688,-1.689,-1.6897,-1.6913,-1.6929,-1.6943,-1.6954,-1.6955,-1.6965,-1.696,-1.6983,-1.6964,-1.6996,-1.6977,-1.6987,-1.6991,-1.6992,-1.6994,-1.6972,-1.7008,-1.7068,-1.7075,-1.6997,-1.6997,-1.6996,0,-1.6865,-1.6891,-1.6917,-1.6923,-1.6934,-1.6947,-1.6952,-1.6962,-1.6973,-1.6987,-1.6994,-1.701,-1.7019,-1.7033,-1.7033,-1.7018,-1.7066,-1.7046,-1.7068,-1.7068,-1.7078,-1.7077,-1.7141,-1.7085,-1.7084,-1.7084,-1.7084,0,-1.6909,-1.6931,-1.6932,-1.6948,-1.6974,-1.6971,-1.6997,-1.7002,-1.7011,-1.7028,-1.7021,-1.7038,-1.7037,-1.7054,-1.7055,-1.7082,-1.7086,-1.7088,-1.7088,-1.7089,-1.7089,-1.7095,-1.7092,-1.7086,-1.7086,-1.7085,-1.7085,0,-1.695,-1.6952,-1.6979,-1.6988,-1.6992,-1.701,-1.7019,-1.7035,-1.7037,-1.706,-1.7065,-1.7069,-1.709,-1.7091,-1.7115,-1.7115,-1.7149,-1.7146,-1.7145,-1.7145,-1.7167,-1.7165,-1.7237,-1.7247,-1.7184,-1.7184,-1.7185,0,-1.6978,-1.6995,-1.7007,-1.7018,-1.7025,-1.7042,-1.7053,-1.7053,-1.7064,-1.708,-1.7094,-1.7114,-1.713,-1.7163,-1.7169,-1.7188,-1.7185,-1.7209,-1.7188,-1.7189,-1.7186,-1.7185,-1.7188,-1.7213,-1.7214,-1.7214,-1.7215,0,-1.7026,-1.7027,-1.7043,-1.706,-1.7073,-1.7086,-1.7099,-1.7108,-1.711,-1.7124,-1.7145,-1.7157,-1.7182,-1.7202,-1.7221,-1.7228,-1.7222,-1.7222,-1.7228,-1.7229,-1.7228,-1.723,-1.7157,-1.722,-1.7219,-1.7219,-1.7218,-1.7218,-1.7062,-1.7078,-1.7089,-1.7108,-1.7117,-1.713,-1.7145,-1.7151,-1.7168,-1.7188,-1.7187,-1.7211,-1.7224,-1.7249,-1.7258,-1.7277,-1.7269,-1.7278,-1.728,-1.7282,-1.7285,-1.7225,-1.7281,-1.728,-1.728,-1.728,-1.728,0,-1.7111,-1.7119,-1.7136,-1.7154,-1.7169,-1.7163,-1.7177,-1.719,-1.7211,-1.7224,-1.724,-1.7265,-1.7286,-1.7294,-1.7315,-1.7329,-1.7327,-1.7334,-1.7333,-1.7335,-1.7291,-1.7283,-1.7336,-1.7336,-1.7336,-1.7336,-1.7336,-1.7336,-1.7138,-1.7165,-1.7167,-1.72,-1.7207,-1.723,-1.7239,-1.7251,-1.7262,-1.729,-1.7307,-1.7313,-1.7325,-1.7347,-1.7366,-1.7368,-1.7376,-1.7385,-1.7386,-1.7344,-1.7338,-1.7333,-1.7326,-1.7387,-1.7387,-1.7429,-1.743,-1.743]},{"header":{"parameterUnit":"m.s-1","parameterCategory":1,"la1":30.2991,"la2":30.254,"lo1":-89.0895,"lo2":-89.0444,"dy":0.0017,"dx":0.0017,"nx":28,"ny":28,"refTime":"2025-09-05T09:00:00:Z","depth":0,"parameterNumber":3,"parameterNumberName":"V-component_of_WINDS"},"data":[0,0,0,0,0,0,0,0,0,0,0,0,0,0,0,0,0,0,0,0,0,0,0,0,0,0,0,0,0,0,0,0,0,0,0,0,0,0,0,0,0,0,0,0,0,0,0,0,0,0,0,0,0,0,0,0,0,0,2.3768,2.3768,0,2.3802,2.3803,2.3803,2.3859,2.386,2.3862,2.3862,2.3895,2.3895,2.3895,0,0,0,0,0,0,0,0,0,0,0,0,0,2.3749,2.3749,2.3768,2.3768,2.3769,2.3802,2.3803,2.3803,2.3859,2.3861,2.3862,2.3863,2.3895,2.3895,2.3895,0,0,0,0,0,0,0,0,0,0,0,0,0,2.3767,2.3749,2.3768,2.3801,2.3804,2.3802,2.3803,2.3803,2.3859,2.3861,2.3862,2.3864,2.3895,2.3895,2.3895,2.3862,0,0,2.3894,2.3894,0,0,0,0,0,0,0,0,2.3766,2.3768,2.3796,2.3799,2.3802,2.3828,2.3808,2.3823,2.3859,2.3838,2.3863,2.3864,2.3871,2.3873,2.3876,2.3864,2.3865,2.3894,2.3894,2.3894,2.3894,0,0,0,0,0,0,0,2.3765,2.3767,2.3781,2.3796,2.38,2.3813,2.3818,2.3811,2.3845,2.384,2.3844,2.3848,2.3873,2.3876,2.3877,2.3866,2.3894,2.3894,2.3894,2.3894,2.3828,2.3826,0,0,0,0,0,0,2.3759,2.3765,2.378,2.3782,2.3788,2.3812,2.3817,2.3818,2.3846,2.3851,2.3846,2.385,2.3876,2.3877,2.3879,2.3841,2.3894,2.3894,2.3894,2.3829,2.3827,2.3825,0,0,0,0,0,0,2.3758,2.376,2.3779,2.3775,2.3779,2.3811,2.3812,2.3818,2.3821,2.385,2.3857,2.3843,2.3877,2.3879,2.3866,2.3843,2.3894,2.3894,2.3831,2.3829,2.3826,2.3767,0,0,0,0,0,0,2.3758,2.3759,2.3748,2.3774,2.3778,2.3766,2.381,2.3818,2.3821,2.3826,2.3849,2.3854,2.3878,2.3866,2.3866,2.3844,2.3894,2.3833,2.383,2.3827,2.3771,2.3763,2.3756,0,0,0,0,0,2.3757,2.3729,2.3747,2.3748,2.3765,2.3765,2.3767,2.3796,2.3819,2.3807,2.3826,2.3853,2.3846,2.3864,2.3864,2.3842,2.3835,2.3831,2.3827,2.3775,2.3765,2.3756,0,0,0,0,0,0,2.3698,2.3733,2.3753,2.3734,2.3746,2.3774,2.376,2.3785,2.379,2.3795,2.383,2.3835,2.3817,2.3829,2.3848,2.3812,2.3845,2.3841,2.3805,2.3795,2.3788,2.3784,2.3893,0,0,0,0,0,2.3683,2.3681,2.3712,2.3691,2.3697,2.3727,2.3728,2.375,2.3764,2.3769,2.3787,2.3798,2.3799,2.3798,2.38,2.3774,2.3779,2.3759,2.3751,2.3745,2.374,2.3726,2.3717,2.3813,2.3813,2.3813,0,0,2.3652,2.3671,2.3667,2.368,2.3692,2.3688,2.3731,2.3725,2.3722,2.3768,2.3756,2.377,2.3785,2.3765,2.3757,2.3774,2.3715,2.374,2.3735,2.3734,2.3721,2.3712,2.3704,2.3811,2.3811,2.3812,0,0,2.3592,2.3607,2.3591,2.3602,2.362,2.3641,2.3637,2.3662,2.3673,2.3663,2.3696,2.3693,2.3693,2.3702,2.3707,2.3651,2.3676,2.3651,2.361,2.3596,2.3588,2.3581,2.356,2.3552,2.3647,2.3647,2.3647,0,2.355,2.3546,2.358,2.3571,2.3575,2.3618,2.3602,2.3611,2.3628,2.3629,2.3649,2.365,2.3663,2.3645,2.3632,2.3635,2.363,2.3647,2.3587,2.358,2.3575,2.3554,2.3546,2.3643,2.3644,2.3644,2.3644,0,2.3493,2.3489,2.3474,2.3491,2.3494,2.3481,2.3512,2.3511,2.3533,2.3551,2.3539,2.3557,2.3563,2.3561,2.3582,2.3546,2.3556,2.358,2.3614,2.3562,2.3543,2.3536,2.3639,2.364,2.3641,2.3642,0,0,2.3395,2.3431,2.3425,2.3432,2.3455,2.3453,2.3442,2.3449,2.3447,2.3458,2.3448,2.3448,2.3471,2.3476,2.3499,2.3486,2.3439,2.3513,2.3514,2.3497,2.3399,2.3378,2.3369,2.3457,2.3455,2.3454,2.3397,0,2.3339,2.3323,2.3353,2.333,2.3326,2.3367,2.3358,2.337,2.3388,2.3386,2.3405,2.3404,2.3435,2.3438,2.3428,2.3447,2.3419,2.3452,2.3447,2.3446,2.344,2.336,2.3338,2.3283,2.339,2.3389,2.3388,0,2.327,2.3278,2.3254,2.3279,2.3278,2.3269,2.3278,2.3277,2.3292,2.3305,2.3311,2.3338,2.3328,2.3362,2.3348,2.3369,2.337,2.3378,2.3377,2.3376,2.3412,2.3354,2.3266,2.3257,2.3377,2.3378,2.3379,0,2.3199,2.3204,2.319,2.3196,2.3224,2.3217,2.3228,2.3245,2.3247,2.3254,2.3255,2.3261,2.3264,2.3267,2.3294,2.3317,2.3277,2.3313,2.3286,2.3285,2.3274,2.3274,2.3182,2.3277,2.3277,2.3277,2.3278,0,2.3131,2.3115,2.3159,2.315,2.3132,2.3167,2.3149,2.3164,2.3179,2.3173,2.3209,2.3203,2.324,2.3238,2.3259,2.3244,2.3245,2.3254,2.326,2.325,2.3248,2.3249,2.3253,2.3275,2.3276,2.3276,2.3277,0,2.3048,2.3077,2.3064,2.3093,2.31,2.3085,2.3109,2.3101,2.3122,2.3114,2.3114,2.3145,2.3144,2.3172,2.3176,2.3191,2.3165,2.3178,2.316,2.3163,2.3134,2.3135,2.3038,2.3026,2.313,2.3129,2.3128,0,2.3002,2.299,2.3018,2.3017,2.3026,2.3025,2.3027,2.3061,2.3062,2.3078,2.3069,2.3071,2.3074,2.307,2.3092,2.3096,2.3108,2.3074,2.3109,2.3099,2.3105,2.3105,2.3103,2.3066,2.3064,2.3063,2.3062,0,2.2916,2.2931,2.2934,2.2941,2.2943,2.295,2.296,2.2957,2.2994,2.2993,2.2993,2.2995,2.3,2.3001,2.3009,2.302,2.3046,2.3052,2.3045,2.3034,2.3023,2.3026,2.3137,2.3053,2.3054,2.3055,2.3055,2.3056,2.2849,2.284,2.2858,2.2859,2.287,2.2878,2.2873,2.2892,2.2893,2.29,2.292,2.2916,2.2931,2.2944,2.2953,2.2949,2.2966,2.2957,2.2955,2.2951,2.2945,2.3025,2.2951,2.2952,2.2952,2.2952,2.2952,0,2.2764,2.2778,2.2779,2.2791,2.2792,2.2819,2.2831,2.2829,2.2825,2.2838,2.284,2.284,2.2841,2.2863,2.2867,2.286,2.2872,2.286,2.2859,2.2861,2.2931,2.2935,2.285,2.285,2.285,2.285,2.285,2.285,2.272,2.2706,2.2723,2.2714,2.2728,2.2725,2.2729,2.2736,2.2746,2.2744,2.2746,2.2761,2.2777,2.2782,2.2784,2.2791,2.2789,2.2772,2.2782,2.2847,2.2856,2.2866,2.287,2.2772,2.2772,2.2713,2.2712,2.2712]}]]